FW6537 Weather Reports


time (UTC)temp
C
wind
direction
speed
KPH
gust
KPH
rain 1hr
cm
rain 24hr
cm
rain mn
cm
humidity
%
barometer
mb
20260505023128 17 60 1.6 6.4 0.00 0.00 0.00 52 1003.0
20260505021626 17 67 1.6 4.8 0.00 0.00 0.00 51 1003.1
20260505020131 17 63 1.6 6.4 0.00 0.00 0.00 52 1003.0
20260505014623 16 94 0.0 0.0 0.00 0.00 0.00 54 1003.0
20260505013127 16 94 0.0 0.0 0.00 0.00 0.00 55 1003.0
20260505011626 16 94 0.0 0.0 0.00 0.00 0.00 55 1003.1
20260505010125 16 94 0.0 0.0 0.00 0.00 0.00 53 1002.8
20260505004624 17 94 0.0 0.0 0.00 0.00 0.00 51 1002.8
20260505003124 18 94 0.0 0.0 0.00 0.00 0.00 47 1002.7
20260505001639 19 94 0.0 0.0 0.00 0.00 0.00 43 1002.7
20260505000137 20 94 0.0 0.0 0.00 0.00 0.00 40 1002.6
20260504234655 21 94 0.0 0.0 0.00 0.00 0.00 37 1002.5
20260504233158 22 94 0.0 0.0 0.00 0.00 0.00 35 1002.5
20260504231631 22 77 1.6 6.4 0.00 0.00 0.00 33 1002.4
20260504230129 23 91 1.6 9.7 0.00 0.00 0.00 32 1002.5
20260504224647 23 89 0.0 6.4 0.00 0.00 0.00 32 1002.5
20260504223142 24 97 1.6 11.3 0.00 0.00 0.00 32 1002.6
20260504221658 24 66 3.2 14.5 0.00 0.00 0.00 31 1002.8
20260504220132 24 84 3.2 12.9 0.00 0.00 0.00 32 1002.8
20260504214626 24 76 6.4 14.5 0.00 0.00 0.00 32 1002.8
20260504213136 23 13 3.2 11.3 0.00 0.00 0.00 35 1002.9
20260504211634 24 118 3.2 11.3 0.00 0.00 0.00 35 1003.0
20260504210124 24 58 6.4 12.9 0.00 0.00 0.00 34 1002.8
20260504204643 24 84 4.8 11.3 0.00 0.00 0.00 36 1003.1
20260504203152 23 46 8.0 14.5 0.00 0.00 0.00 36 1003.4
20260504201648 23 88 8.0 16.1 0.00 0.00 0.00 36 1003.6
20260504200139 23 60 6.4 17.7 0.00 0.00 0.00 37 1003.8
20260504194625 23 39 6.4 14.5 0.00 0.00 0.00 37 1003.9
20260504193146 22 4 6.4 17.7 0.00 0.00 0.00 39 1004.2
20260504191649 22 54 6.4 22.5 0.00 0.00 0.00 40 1004.3
20260504190151 22 104 3.2 19.3 0.00 0.00 0.00 42 1004.4
20260504184641 22 86 6.4 16.1 0.00 0.00 0.00 44 1004.6
20260504183131 21 51 9.7 27.4 0.00 0.00 0.00 43 1004.7
20260504181624 21 68 6.4 14.5 0.00 0.00 0.00 43 1004.8
20260504180125 21 73 6.4 9.7 0.00 0.00 0.00 44 1004.9
20260504174657 21 57 3.2 19.3 0.00 0.00 0.00 45 1005.0
20260504173131 21 29 6.4 25.7 0.00 0.00 0.00 45 1005.2
20260504171628 21 43 6.4 27.4 0.00 0.00 0.00 44 1005.0
20260504170200 20 134 6.4 16.1 0.00 0.00 0.00 45 1005.2
20260504160132 19 41 4.8 14.5 0.00 0.00 0.00 47 1006.1
20260504150133 17 48 8.0 12.9 0.00 0.00 0.00 47 1006.5
20260504140125 15 220 6.4 12.9 0.00 0.00 0.00 50 1006.7
20260504130135 13 75 6.4 11.3 0.00 0.00 0.00 51 1007.1
20260504120130 12 30 3.2 11.3 0.00 0.00 0.00 53 1007.3
20260504110207 12 359 3.2 12.9 0.00 0.00 0.00 52 1007.0
20260504100125 11 27 1.6 8.0 0.00 0.00 0.00 53 1007.2
20260504090138 11 61 3.2 11.3 0.00 0.00 0.00 54 1007.2
20260504081657 11 39 4.8 12.9 0.00 0.00 0.00 53 1007.5
20260504080128 11 31 4.8 11.3 0.00 0.00 0.00 53 1007.6
20260504070127 11 82 3.2 9.7 0.00 0.00 0.00 53 1007.7
20260504060147 12 98 3.2 12.9 0.00 0.00 0.00 52 1007.8
20260504050142 11 90 0.0 1.6 0.00 0.00 0.00 60 1008.0
20260504044638 10 96 0.0 1.6 0.00 0.00 0.00 65 1008.1
20260504043131 10 96 0.0 1.6 0.00 0.00 0.00 67 1008.1
20260504041626 10 96 0.0 0.0 0.00 0.00 0.00 67 1008.2
20260504040142 10 96 0.0 0.0 0.00 0.00 0.00 66 1008.3
20260504034639 10 96 0.0 1.6 0.00 0.00 0.00 68 1008.5
20260504033133 10 97 0.0 0.0 0.00 0.00 0.00 68 1008.6
20260504030135 10 97 0.0 0.0 0.00 0.00 0.00 68 1008.6
20260504024631 11 70 0.0 3.2 0.00 0.00 0.00 67 1008.8